EPE804 OPKC-OMSJ

Flight info

Callsign EPE804
Flight time 1h 43m
Altitude 32000
Route MELOM A454 VUSET N571 MENSA N317 NOLSU
Aircraft B733/M-SDE2E3FHIRW/S

Departure

Time 2026-05-06 09:48
Airport Jinnah International Airport (OPKC)

Arrival

Time 2026-05-06 11:32
Airport Sharjah International Airport (OMSJ)
Time Latitude Longitude Altitude Speed Heading
2026-05-06 09:16 24.90243 67.16215 83 ft 0 kts 166°
2026-05-06 09:38 24.90256 67.16211 84 ft 2 kts 166°
2026-05-06 09:38 24.90271 67.16207 84 ft 2 kts 166°
2026-05-06 09:38 24.90285 67.16203 84 ft 2 kts 166°
2026-05-06 09:39 24.90299 67.16200 84 ft 1 kts 166°
2026-05-06 09:39 24.90309 67.16197 84 ft 2 kts 158°
2026-05-06 09:39 24.90317 67.16193 84 ft 0 kts 144°
2026-05-06 09:42 24.90315 67.16193 84 ft 0 kts 144°
2026-05-06 09:42 24.90311 67.16196 83 ft 0 kts 145°
2026-05-06 09:42 24.90308 67.16200 84 ft 1 kts 142°
2026-05-06 09:42 24.90313 67.16222 84 ft 6 kts 28°
2026-05-06 09:43 24.90348 67.16234 84 ft 3 kts 20°
2026-05-06 09:43 24.90369 67.16264 84 ft 8 kts 72°
2026-05-06 09:43 24.90394 67.16363 84 ft 14 kts 75°
2026-05-06 09:43 24.90419 67.16467 85 ft 14 kts 74°
2026-05-06 09:44 24.90447 67.16574 85 ft 14 kts 74°
2026-05-06 09:44 24.90471 67.16666 84 ft 11 kts 75°
2026-05-06 09:44 24.90491 67.16750 85 ft 11 kts 74°
2026-05-06 09:44 24.90515 67.16839 87 ft 13 kts 73°
2026-05-06 09:45 24.90543 67.16945 87 ft 15 kts 75°
2026-05-06 09:45 24.90576 67.17085 88 ft 19 kts 75°
2026-05-06 09:45 24.90615 67.17234 90 ft 19 kts 75°
2026-05-06 09:45 24.90653 67.17377 93 ft 18 kts 64°
2026-05-06 09:46 24.90722 67.17453 94 ft 9 kts 30°
2026-05-06 09:46 24.90753 67.17471 95 ft 0 kts 29°
2026-05-06 09:46 24.90754 67.17472 95 ft 1 kts 29°
2026-05-06 09:46 24.90788 67.17491 95 ft 9 kts 18°
2026-05-06 09:47 24.90853 67.17477 96 ft 9 kts 321°
2026-05-06 09:47 24.90861 67.17419 96 ft 4 kts 251°
2026-05-06 09:47 24.90858 67.17409 96 ft 0 kts 252°
2026-05-06 09:47 24.90833 67.17315 96 ft 31 kts 254°
2026-05-06 09:48 24.90700 67.16790 87 ft 101 kts 254°
2026-05-06 09:48 24.90448 67.15789 88 ft 153 kts 254°
2026-05-06 09:48 24.90181 67.14615 524 ft 159 kts 253°
2026-05-06 09:48 24.89652 67.13476 824 ft 176 kts 223°
2026-05-06 09:49 24.88438 67.12890 1175 ft 187 kts 200°
2026-05-06 09:49 24.87212 67.12439 1820 ft 180 kts 202°
2026-05-06 09:49 24.86005 67.11961 2242 ft 187 kts 203°
2026-05-06 09:49 24.84731 67.11435 2692 ft 192 kts 204°
2026-05-06 09:50 24.83461 67.10896 3143 ft 197 kts 204°
2026-05-06 09:50 24.82229 67.10115 3466 ft 208 kts 223°
2026-05-06 09:50 24.81071 67.09010 3827 ft 222 kts 223°
2026-05-06 09:50 24.79788 67.07781 4190 ft 240 kts 224°
2026-05-06 09:51 24.78406 67.06452 4628 ft 257 kts 223°
2026-05-06 09:51 24.77026 67.05124 5086 ft 271 kts 223°
2026-05-06 09:51 24.75518 67.03674 5742 ft 278 kts 224°
2026-05-06 09:51 24.73898 67.02114 6470 ft 284 kts 224°
2026-05-06 09:52 24.72461 67.00353 7156 ft 287 kts 242°
2026-05-06 09:52 24.71828 66.98117 7832 ft 286 kts 272°
2026-05-06 09:52 24.71874 66.95721 8584 ft 290 kts 273°
2026-05-06 09:52 24.71879 66.93392 9295 ft 296 kts 272°
2026-05-06 09:53 24.71841 66.90911 10053 ft 301 kts 272°
2026-05-06 09:53 24.71782 66.88402 10201 ft 328 kts 271°
2026-05-06 09:53 24.71701 66.85844 10606 ft 342 kts 271°
2026-05-06 09:53 24.71609 66.83227 11301 ft 346 kts 271°
2026-05-06 09:54 24.71511 66.80584 12024 ft 350 kts 271°
2026-05-06 09:54 24.71409 66.77911 12731 ft 354 kts 271°
2026-05-06 09:54 24.71301 66.75141 13439 ft 358 kts 271°
2026-05-06 09:54 24.71194 66.72417 14210 ft 359 kts 271°
2026-05-06 09:55 24.71087 66.69694 14943 ft 360 kts 271°
2026-05-06 09:55 24.70978 66.66959 15675 ft 362 kts 271°
2026-05-06 09:55 24.70868 66.64196 16366 ft 364 kts 271°
2026-05-06 09:55 24.70755 66.61388 17083 ft 366 kts 271°
2026-05-06 09:56 24.70642 66.58593 17745 ft 369 kts 271°
2026-05-06 09:56 24.70528 66.55788 18412 ft 369 kts 271°
2026-05-06 09:56 24.70414 66.52979 19008 ft 372 kts 271°
2026-05-06 09:56 24.70298 66.50153 19606 ft 374 kts 271°
2026-05-06 09:57 24.70180 66.47274 20214 ft 375 kts 271°
2026-05-06 09:57 24.70062 66.44416 20795 ft 376 kts 271°
2026-05-06 09:57 24.69943 66.41550 21302 ft 379 kts 272°
2026-05-06 09:57 24.69823 66.38666 21831 ft 381 kts 272°
2026-05-06 09:58 24.69701 66.35744 22334 ft 382 kts 272°
2026-05-06 09:58 24.69579 66.32829 22772 ft 386 kts 271°
2026-05-06 09:58 24.69452 66.29852 23254 ft 388 kts 271°
2026-05-06 09:58 24.69319 66.26713 23783 ft 389 kts 272°
2026-05-06 09:59 24.69184 66.23548 24271 ft 391 kts 272°
2026-05-06 09:59 24.69055 66.20549 24712 ft 393 kts 271°
2026-05-06 09:59 24.68926 66.17550 25140 ft 395 kts 271°
2026-05-06 09:59 24.68796 66.14543 25589 ft 396 kts 272°
2026-05-06 10:00 24.68661 66.11438 25997 ft 399 kts 272°
2026-05-06 10:00 24.68519 66.08192 26408 ft 401 kts 271°
2026-05-06 10:00 24.68379 66.04985 26814 ft 403 kts 272°
2026-05-06 10:00 24.68235 66.01707 27198 ft 405 kts 271°
2026-05-06 10:01 24.68088 65.98399 27618 ft 407 kts 271°
2026-05-06 10:01 24.67947 65.95237 27980 ft 409 kts 272°
2026-05-06 10:01 24.67807 65.92120 28318 ft 411 kts 272°
2026-05-06 10:01 24.67667 65.88998 28690 ft 412 kts 272°
2026-05-06 10:02 24.67525 65.85874 29128 ft 411 kts 272°
2026-05-06 10:02 24.67381 65.82720 29640 ft 409 kts 272°
2026-05-06 10:02 24.67240 65.79633 30191 ft 405 kts 271°
2026-05-06 10:02 24.67099 65.76572 30698 ft 402 kts 271°
2026-05-06 10:03 24.66955 65.73426 31155 ft 401 kts 271°
2026-05-06 10:03 24.66807 65.70216 31465 ft 402 kts 271°
2026-05-06 10:03 24.66656 65.66953 31712 ft 403 kts 270°
2026-05-06 10:03 24.66502 65.63663 31831 ft 401 kts 270°
2026-05-06 10:04 24.66208 65.57396 31802 ft 399 kts 270°
2026-05-06 10:04 24.65894 65.50857 31788 ft 399 kts 270°
2026-05-06 10:05 24.65572 65.44280 31795 ft 400 kts 270°
2026-05-06 10:05 24.65250 65.37691 31795 ft 399 kts 271°
2026-05-06 10:06 24.64947 65.31498 31771 ft 400 kts 270°
2026-05-06 10:06 24.64648 65.25423 31798 ft 400 kts 270°
2026-05-06 10:07 24.64347 65.19347 31793 ft 399 kts 270°
2026-05-06 10:07 24.64043 65.13266 31794 ft 401 kts 270°
2026-05-06 10:08 24.63734 65.07139 31795 ft 400 kts 270°
2026-05-06 10:08 24.63425 65.01068 31796 ft 399 kts 270°
2026-05-06 10:09 24.63114 64.94994 31796 ft 401 kts 270°
2026-05-06 10:09 24.62798 64.88873 31806 ft 400 kts 270°
2026-05-06 10:10 24.62481 64.82788 31797 ft 399 kts 270°
2026-05-06 10:10 24.62161 64.76682 31796 ft 401 kts 270°
2026-05-06 10:11 24.61840 64.70602 31800 ft 400 kts 270°
2026-05-06 10:11 24.61514 64.64484 31798 ft 400 kts 270°
2026-05-06 10:12 24.61188 64.58415 31796 ft 401 kts 270°
2026-05-06 10:12 24.60859 64.52324 31799 ft 400 kts 270°
2026-05-06 10:13 24.60516 64.46036 31792 ft 400 kts 270°
2026-05-06 10:13 24.60182 64.39941 31797 ft 400 kts 270°
2026-05-06 10:14 24.59844 64.33837 31780 ft 400 kts 270°
2026-05-06 10:14 24.59504 64.27734 31796 ft 402 kts 270°
2026-05-06 10:15 24.59160 64.21593 31798 ft 401 kts 270°
2026-05-06 10:15 24.58816 64.15513 31799 ft 400 kts 269°
2026-05-06 10:16 24.58470 64.09428 31798 ft 401 kts 269°
2026-05-06 10:16 24.58118 64.03291 31803 ft 401 kts 269°
2026-05-06 10:17 24.57767 63.97212 31801 ft 400 kts 270°
2026-05-06 10:17 24.57414 63.91137 31813 ft 401 kts 269°
2026-05-06 10:18 24.57054 63.84997 31817 ft 402 kts 269°
2026-05-06 10:18 24.56691 63.78833 31803 ft 403 kts 269°
2026-05-06 10:19 24.56322 63.72623 31803 ft 402 kts 269°
2026-05-06 10:19 24.55957 63.66515 31805 ft 403 kts 269°
2026-05-06 10:20 24.55587 63.60359 31802 ft 404 kts 269°
2026-05-06 10:20 24.55216 63.54239 31799 ft 403 kts 269°
2026-05-06 10:21 24.54842 63.48114 31801 ft 404 kts 269°
2026-05-06 10:21 24.54463 63.41937 31803 ft 404 kts 269°
2026-05-06 10:22 24.54084 63.35805 31803 ft 405 kts 269°
2026-05-06 10:22 24.53701 63.29660 31801 ft 404 kts 269°
2026-05-06 10:23 24.53315 63.23484 31801 ft 405 kts 269°
2026-05-06 10:23 24.52928 63.17355 31803 ft 405 kts 269°
2026-05-06 10:24 24.52536 63.11177 31801 ft 405 kts 269°
2026-05-06 10:24 24.52138 63.04949 31801 ft 405 kts 269°
2026-05-06 10:25 24.51733 62.98641 31801 ft 405 kts 269°
2026-05-06 10:25 24.51336 62.92497 31796 ft 404 kts 269°
2026-05-06 10:26 24.50932 62.86303 31796 ft 404 kts 269°
2026-05-06 10:26 24.50529 62.80151 31806 ft 404 kts 269°
2026-05-06 10:27 24.50125 62.74018 31802 ft 404 kts 269°
2026-05-06 10:27 24.49719 62.67905 31798 ft 404 kts 269°
2026-05-06 10:28 24.49307 62.61733 31799 ft 404 kts 269°
2026-05-06 10:28 24.48896 62.55612 31801 ft 404 kts 269°
2026-05-06 10:29 24.48482 62.49479 31802 ft 405 kts 269°
2026-05-06 10:29 24.48061 62.43295 31810 ft 404 kts 269°
2026-05-06 10:30 24.47641 62.37153 31799 ft 404 kts 269°
2026-05-06 10:30 24.47220 62.31018 31786 ft 405 kts 268°
2026-05-06 10:31 24.46794 62.24868 31812 ft 406 kts 268°
2026-05-06 10:31 24.46363 62.18672 31816 ft 406 kts 268°
2026-05-06 10:32 24.45932 62.12519 31814 ft 405 kts 268°
2026-05-06 10:32 24.45500 62.06389 31810 ft 405 kts 268°
2026-05-06 10:33 24.45048 62.00011 31814 ft 405 kts 268°
2026-05-06 10:33 24.44610 61.93859 31818 ft 405 kts 268°
2026-05-06 10:34 24.44169 61.87717 31811 ft 406 kts 268°
2026-05-06 10:34 24.43722 61.81514 31815 ft 407 kts 268°
2026-05-06 10:35 24.43275 61.75349 31815 ft 405 kts 268°
2026-05-06 10:35 24.42828 61.69214 31812 ft 405 kts 268°
2026-05-06 10:36 24.42375 61.63033 31819 ft 406 kts 268°
2026-05-06 10:36 24.41914 61.56793 31809 ft 405 kts 268°
2026-05-06 10:37 24.41427 61.50225 31813 ft 406 kts 268°
2026-05-06 10:37 24.40966 61.44032 31814 ft 407 kts 268°
2026-05-06 10:38 24.40504 61.37883 31816 ft 406 kts 268°
2026-05-06 10:38 24.39852 61.31715 31779 ft 409 kts 259°
2026-05-06 10:39 24.38459 61.25680 31818 ft 410 kts 259°
2026-05-06 10:39 24.37160 61.19612 31817 ft 410 kts 260°
2026-05-06 10:40 24.35885 61.13501 31815 ft 410 kts 260°
2026-05-06 10:40 24.34621 61.07431 31817 ft 410 kts 260°
2026-05-06 10:41 24.33346 61.01326 31816 ft 410 kts 260°
2026-05-06 10:41 24.32080 60.95271 31815 ft 410 kts 260°
2026-05-06 10:42 24.30807 60.89198 31821 ft 410 kts 260°
2026-05-06 10:42 24.29522 60.83080 31813 ft 410 kts 260°
2026-05-06 10:43 24.28246 60.77022 31804 ft 409 kts 260°
2026-05-06 10:44 24.26316 60.67875 31811 ft 409 kts 260°
2026-05-06 10:44 24.25034 60.61817 31814 ft 410 kts 260°
2026-05-06 10:45 24.23747 60.55746 31818 ft 411 kts 260°
2026-05-06 10:45 24.22419 60.49495 31812 ft 410 kts 260°
2026-05-06 10:46 24.21119 60.43388 31818 ft 410 kts 260°
2026-05-06 10:46 24.19827 60.37334 31814 ft 410 kts 260°
2026-05-06 10:47 24.18531 60.31261 31796 ft 411 kts 259°
2026-05-06 10:47 24.17216 60.25117 31823 ft 411 kts 259°
2026-05-06 10:48 24.15912 60.19038 31820 ft 411 kts 259°
2026-05-06 10:48 24.14605 60.12967 31815 ft 411 kts 259°
2026-05-06 10:49 24.13295 60.06885 31819 ft 412 kts 259°
2026-05-06 10:49 24.11980 60.00800 31818 ft 412 kts 259°
2026-05-06 10:50 24.10650 59.94656 31820 ft 412 kts 259°
2026-05-06 10:50 24.09309 59.88472 31821 ft 412 kts 259°
2026-05-06 10:51 24.07988 59.82395 31812 ft 411 kts 259°
2026-05-06 10:51 24.06659 59.76292 31820 ft 411 kts 259°
2026-05-06 10:52 24.05338 59.70235 31821 ft 411 kts 259°
2026-05-06 10:52 24.03945 59.63868 31829 ft 411 kts 259°
2026-05-06 10:53 24.02540 59.57453 31823 ft 412 kts 259°
2026-05-06 10:53 24.01125 59.51011 31793 ft 414 kts 259°
2026-05-06 10:54 23.99706 59.44564 31785 ft 413 kts 259°
2026-05-06 10:54 23.98295 59.38164 31791 ft 414 kts 259°
2026-05-06 10:55 23.96869 59.31702 31763 ft 413 kts 258°
2026-05-06 10:55 23.95510 59.25554 31788 ft 414 kts 258°
2026-05-06 10:56 23.94159 59.19464 31796 ft 413 kts 258°
2026-05-06 10:56 23.93092 59.13256 31746 ft 408 kts 275°
2026-05-06 10:56 23.93867 59.10141 31789 ft 408 kts 296°
2026-05-06 10:57 23.95308 59.07231 31790 ft 411 kts 297°
2026-05-06 10:57 23.97909 59.01666 31790 ft 409 kts 295°
2026-05-06 10:58 24.00341 58.96061 31786 ft 410 kts 294°
2026-05-06 10:58 24.02756 58.90420 31780 ft 410 kts 294°
2026-05-06 10:59 24.05180 58.84744 31784 ft 409 kts 294°
2026-05-06 10:59 24.07581 58.79115 31787 ft 410 kts 294°
2026-05-06 11:00 24.10093 58.73215 31796 ft 410 kts 294°
2026-05-06 11:00 24.12652 58.67196 31797 ft 410 kts 294°
2026-05-06 11:01 24.15175 58.61221 31794 ft 410 kts 294°
2026-05-06 11:01 24.17714 58.55231 31797 ft 409 kts 294°
2026-05-06 11:02 24.20256 58.49236 31794 ft 409 kts 294°
2026-05-06 11:02 24.22784 58.43268 31795 ft 408 kts 294°
2026-05-06 11:03 24.25315 58.37284 31792 ft 408 kts 294°
2026-05-06 11:03 24.27858 58.31250 31783 ft 408 kts 294°
2026-05-06 11:04 24.30453 58.25101 31780 ft 408 kts 294°
2026-05-06 11:04 24.32861 58.19391 31781 ft 408 kts 294°
2026-05-06 11:05 24.35234 58.13743 31783 ft 408 kts 294°
2026-05-06 11:05 24.37608 58.08084 31781 ft 408 kts 293°
2026-05-06 11:06 24.39985 58.02408 31785 ft 407 kts 293°
2026-05-06 11:06 24.42347 57.96764 31781 ft 408 kts 293°
2026-05-06 11:07 24.44706 57.91119 31778 ft 408 kts 293°
2026-05-06 11:07 24.47071 57.85450 31775 ft 407 kts 294°
2026-05-06 11:08 24.49412 57.79834 31783 ft 406 kts 294°
2026-05-06 11:08 24.51635 57.74121 31790 ft 407 kts 291°
2026-05-06 11:09 24.53794 57.68401 31793 ft 407 kts 291°
2026-05-06 11:09 24.55975 57.62653 31790 ft 406 kts 291°
2026-05-06 11:10 24.58141 57.56947 31784 ft 407 kts 291°
2026-05-06 11:10 24.60311 57.51223 31789 ft 407 kts 291°
2026-05-06 11:11 24.62487 57.45477 31788 ft 406 kts 291°
2026-05-06 11:11 24.64641 57.39781 31780 ft 405 kts 291°
2026-05-06 11:12 24.66809 57.34027 31769 ft 406 kts 291°
2026-05-06 11:12 24.68941 57.28313 31782 ft 405 kts 291°
2026-05-06 11:13 24.71102 57.22560 31783 ft 406 kts 291°
2026-05-06 11:13 24.73250 57.16845 31783 ft 405 kts 291°
2026-05-06 11:14 24.75404 57.11108 31781 ft 405 kts 291°
2026-05-06 11:14 24.77551 57.05381 31752 ft 412 kts 291°
2026-05-06 11:14 24.78725 57.02245 31521 ft 423 kts 291°
2026-05-06 11:15 24.79906 56.99090 30220 ft 425 kts 291°
2026-05-06 11:15 24.81102 56.95898 29973 ft 405 kts 291°
2026-05-06 11:15 24.82249 56.92828 29274 ft 398 kts 291°
2026-05-06 11:15 24.83316 56.89972 28492 ft 395 kts 291°
2026-05-06 11:16 24.84352 56.87197 27679 ft 394 kts 291°
2026-05-06 11:16 24.85384 56.84439 26907 ft 392 kts 291°
2026-05-06 11:16 24.86426 56.81639 26167 ft 389 kts 291°
2026-05-06 11:16 24.87513 56.78714 25399 ft 385 kts 292°
2026-05-06 11:17 24.88594 56.75810 24667 ft 381 kts 292°
2026-05-06 11:17 24.89682 56.72884 24098 ft 373 kts 292°
2026-05-06 11:17 24.90755 56.69997 23513 ft 367 kts 292°
2026-05-06 11:17 24.91759 56.67293 22950 ft 361 kts 292°
2026-05-06 11:18 24.92712 56.64725 22401 ft 357 kts 292°
2026-05-06 11:18 24.93642 56.62218 21871 ft 353 kts 292°
2026-05-06 11:18 24.94629 56.59555 21308 ft 349 kts 292°
2026-05-06 11:18 24.95690 56.56962 20720 ft 345 kts 289°
2026-05-06 11:19 24.96344 56.54245 20155 ft 342 kts 284°
2026-05-06 11:19 24.96959 56.51539 19588 ft 341 kts 286°
2026-05-06 11:19 24.97585 56.49005 19005 ft 340 kts 287°
2026-05-06 11:19 24.98233 56.46484 18385 ft 340 kts 287°
2026-05-06 11:20 24.98897 56.43955 17804 ft 340 kts 287°
2026-05-06 11:20 24.99566 56.41429 17198 ft 341 kts 288°
2026-05-06 11:20 25.00249 56.38866 16600 ft 341 kts 288°
2026-05-06 11:20 25.00915 56.36368 16031 ft 341 kts 287°
2026-05-06 11:21 25.01590 56.33833 15420 ft 341 kts 287°
2026-05-06 11:21 25.02257 56.31323 14836 ft 341 kts 287°
2026-05-06 11:21 25.02921 56.28825 14274 ft 340 kts 287°
2026-05-06 11:21 25.03584 56.26333 13738 ft 339 kts 287°
2026-05-06 11:22 25.04245 56.23851 13212 ft 338 kts 287°
2026-05-06 11:22 25.04912 56.21342 12630 ft 337 kts 287°
2026-05-06 11:22 25.05564 56.18890 12073 ft 336 kts 287°
2026-05-06 11:22 25.06220 56.16423 11540 ft 334 kts 287°
2026-05-06 11:23 25.06877 56.13948 10999 ft 332 kts 287°
2026-05-06 11:23 25.07527 56.11498 10538 ft 327 kts 286°
2026-05-06 11:23 25.08162 56.09105 10165 ft 321 kts 286°
2026-05-06 11:23 25.08781 56.06768 9889 ft 311 kts 286°
2026-05-06 11:24 25.09386 56.04481 9658 ft 301 kts 287°
2026-05-06 11:24 25.09971 56.02271 9234 ft 301 kts 286°
2026-05-06 11:24 25.10562 56.00061 8795 ft 301 kts 287°
2026-05-06 11:24 25.11162 55.97825 8382 ft 299 kts 286°
2026-05-06 11:25 25.11743 55.95647 7987 ft 297 kts 286°
2026-05-06 11:25 25.12329 55.93435 7594 ft 296 kts 286°
2026-05-06 11:25 25.12902 55.91272 7203 ft 294 kts 286°
2026-05-06 11:25 25.13473 55.89109 6831 ft 292 kts 286°
2026-05-06 11:26 25.14037 55.86972 6433 ft 291 kts 286°
2026-05-06 11:26 25.14599 55.84835 6055 ft 289 kts 286°
2026-05-06 11:26 25.15243 55.82730 5653 ft 287 kts 295°
2026-05-06 11:26 25.16137 55.80792 5302 ft 281 kts 300°
2026-05-06 11:27 25.17151 55.78933 5140 ft 279 kts 303°
2026-05-06 11:27 25.18231 55.77128 4944 ft 280 kts 305°
2026-05-06 11:27 25.19336 55.75333 4618 ft 284 kts 305°
2026-05-06 11:27 25.20467 55.73475 4193 ft 292 kts 304°
2026-05-06 11:28 25.21597 55.71570 3734 ft 298 kts 304°
2026-05-06 11:28 25.22736 55.69619 3319 ft 295 kts 303°
2026-05-06 11:28 25.23826 55.67738 2954 ft 288 kts 303°
2026-05-06 11:28 25.24918 55.65854 2578 ft 282 kts 304°
2026-05-06 11:29 25.25954 55.64064 2221 ft 265 kts 304°
2026-05-06 11:29 25.26911 55.62410 1888 ft 244 kts 304°
2026-05-06 11:29 25.27804 55.60873 1596 ft 224 kts 304°
2026-05-06 11:29 25.28621 55.59471 1327 ft 207 kts 305°
2026-05-06 11:30 25.29385 55.58173 1044 ft 192 kts 305°
2026-05-06 11:30 25.30078 55.56999 959 ft 164 kts 305°
2026-05-06 11:30 25.30692 55.55942 668 ft 154 kts 304°
2026-05-06 11:30 25.31272 55.54929 454 ft 148 kts 304°
2026-05-06 11:31 25.31822 55.53972 249 ft 142 kts 305°
2026-05-06 11:31 25.32351 55.53064 112 ft 133 kts 304°
2026-05-06 11:31 25.32788 55.52305 106 ft 90 kts 302°
2026-05-06 11:31 25.33085 55.51789 102 ft 63 kts 303°
2026-05-06 11:32 25.33197 55.51455 99 ft 38 kts 271°
2026-05-06 11:32 25.33206 55.51208 99 ft 23 kts 273°
2026-05-06 11:32 25.33235 55.51069 98 ft 13 kts 297°
2026-05-06 11:32 25.33273 55.51001 98 ft 8 kts 303°
2026-05-06 11:33 25.33304 55.50941 98 ft 9 kts 283°
2026-05-06 11:33 25.33273 55.50880 98 ft 11 kts 217°
2026-05-06 11:33 25.33194 55.50835 96 ft 11 kts 179°
2026-05-06 11:33 25.33137 55.50898 96 ft 12 kts 122°
2026-05-06 11:34 25.33094 55.50974 97 ft 11 kts 123°
2026-05-06 11:34 25.33050 55.51049 96 ft 12 kts 123°
2026-05-06 11:34 25.32998 55.51135 95 ft 14 kts 121°
2026-05-06 11:34 25.32945 55.51231 96 ft 12 kts 123°
2026-05-06 11:35 25.32877 55.51238 95 ft 12 kts 213°
2026-05-06 11:35 25.32794 55.51179 92 ft 15 kts 212°
2026-05-06 11:35 25.32695 55.51111 89 ft 13 kts 212°
2026-05-06 11:35 25.32674 55.51061 88 ft 8 kts 309°
2026-05-06 11:36 25.32704 55.51018 87 ft 4 kts 302°
2026-05-06 11:36 25.32707 55.51013 87 ft 0 kts 302°